Location: Narrabri
(30.3170°S, 149.7830°E)
Time: 15:11:54
(UTC+11:00)

Tiangong 2 - Pass Details

Date: 16 October 2017
Orbit: 386 x 390 km, 42.8° (Epoch: 10 December)

Event Time Altitude Azimuth Distance (km) Brightness Sun altitude
Rises 20:33:14 0° 240° (WSW) 2,290 6.7 -17.7°
Reaches altitude 10° 20:35:20 10° 243° (WSW) 1,428 5.2 -18.1°
Maximum altitude 20:38:32 64° 324° (NW) 436 1.3 -18.7°
Enters shadow 20:38:49 60° 357° (N) 452 1.2 -18.8°
